Location: *
(50.3194°N, 7.1067°E)
Time: 08:33:26
(UTC+00:00)

ISS - Pass Details

Date: 22 September 2019
Orbit: 411 x 421 km, 51.6° (Epoch: 20 October)

Event Time Altitude Azimuth Distance (km) Brightness Sun altitude
Rises 19:18:29 0° 242° (WSW) 2,338 0.6 -17.6°
Reaches altitude 10° 19:20:35 10° 239° (WSW) 1,478 -0.5 -17.9°
Maximum altitude 19:23:52 62° 158° (SSE) 466 -3.8 -18.4°
Enters shadow 19:23:54 62° 153° (SSE) 467 -3.8 -18.4°
